TimeCST,TemperatureF,Dew PointF,Humidity,Sea Level PressureIn,VisibilityMPH,Wind Direction,Wind SpeedMPH,Gust SpeedMPH,PrecipitationIn,Events,Conditions,WindDirDegrees,DateUTC
12:53 AM,32.0,8.1,37,30.27,10.0,East,11.5,-,N/A,,Overcast,80,2013-02-20 06:53:00
1:53 AM,32.0,7.0,35,30.25,10.0,East,12.7,-,N/A,,Overcast,100,2013-02-20 07:53:00
2:53 AM,30.9,6.1,35,30.23,10.0,East,12.7,-,N/A,,Overcast,90,2013-02-20 08:53:00
3:53 AM,30.0,5.0,35,30.23,10.0,East,15.0,-,N/A,,Overcast,80,2013-02-20 09:53:00
4:53 AM,28.9,6.1,38,30.22,10.0,East,13.8,-,N/A,,Overcast,90,2013-02-20 10:53:00
5:53 AM,28.9,7.0,40,30.26,10.0,ESE,8.1,-,N/A,,Overcast,120,2013-02-20 11:53:00
6:53 AM,28.4,8.6,43,30.21,10.0,East,15.0,-,N/A,,Overcast,90,2013-02-20 12:53:00
7:53 AM,28.9,10.0,45,30.26,10.0,ESE,17.3,-,N/A,,Overcast,110,2013-02-20 13:53:00
8:24 AM,26.6,15.8,64,30.25,2.0,ESE,17.3,-,0.00,Snow,Light Snow,120,2013-02-20 14:24:00
8:33 AM,26.6,19.4,74,30.25,0.8,ESE,15.0,-,0.00,Snow,Light Snow,120,2013-02-20 14:33:00
8:46 AM,24.8,21.2,86,30.25,0.5,ESE,12.7,-,0.01,Snow,Snow,110,2013-02-20 14:46:00
8:53 AM,25.0,23.0,92,30.28,0.5,East,13.8,-,0.01,Snow,Snow,100,2013-02-20 14:53:00
8:56 AM,24.8,23.0,93,30.24,0.2,ESE,13.8,-,0.01,Snow,Snow,110,2013-02-20 14:56:00
9:12 AM,24.8,23.0,93,30.23,0.5,ESE,13.8,-,0.03,Snow,Snow,110,2013-02-20 15:12:00
9:53 AM,25.0,23.0,92,30.25,0.5,East,15.0,-,0.08,Fog-Snow,Snow,100,2013-02-20 15:53:00
10:06 AM,24.8,23.0,93,30.21,0.2,East,13.8,-,0.02,Fog-Snow,Heavy Snow,100,2013-02-20 16:06:00
10:53 AM,25.0,24.1,96,30.23,0.2,East,13.8,-,0.10,Fog-Snow,Heavy Snow,90,2013-02-20 16:53:00
11:53 AM,27.0,25.0,92,30.21,0.2,East,13.8,-,0.16,Fog-Snow,Heavy Snow,100,2013-02-20 17:53:00
12:11 PM,26.6,26.6,100,30.17,0.5,East,11.5,-,0.04,Fog-Snow,Snow,100,2013-02-20 18:11:00
12:29 PM,28.4,26.6,93,30.17,0.5,East,15.0,-,0.05,Snow,Light Snow,100,2013-02-20 18:29:00
12:37 PM,28.4,26.6,93,30.16,0.5,East,11.5,-,0.06,Snow,Light Snow,100,2013-02-20 18:37:00
12:44 PM,28.4,26.6,93,30.15,0.5,East,15.0,-,0.06,Fog-Snow,Snow,100,2013-02-20 18:44:00
12:53 PM,28.0,27.0,96,30.19,0.5,ESE,13.8,-,0.07,Snow,Light Snow,110,2013-02-20 18:53:00
12:58 PM,28.4,26.6,93,30.15,0.5,ESE,13.8,-,0.00,Fog-Snow,Snow,110,2013-02-20 18:58:00
1:42 PM,30.2,28.4,93,30.11,0.5,East,11.5,-,0.03,Snow,Light Snow,100,2013-02-20 19:42:00
1:49 PM,30.2,28.4,93,30.11,2.0,East,19.6,24.2,0.03,Snow,Light Snow,100,2013-02-20 19:49:00
1:50 PM,30.0,27.0,88,30.15,2.0,East,18.4,24.2,0.03,Snow,Light Snow,100,2013-02-20 19:50:00
2:42 PM,30.2,28.4,93,30.07,4.0,East,16.1,-,0.00,Snow,Light Snow,90,2013-02-20 20:42:00
2:53 PM,30.2,28.4,93,30.07,4.0,ESE,16.1,-,N/A,,Overcast,110,2013-02-20 20:53:00
3:53 PM,30.9,27.0,85,30.08,7.0,East,18.4,-,N/A,,Overcast,100,2013-02-20 21:53:00
4:53 PM,30.9,28.0,89,30.08,7.0,East,15.0,23.0,N/A,,Overcast,100,2013-02-20 22:53:00
5:41 PM,30.2,28.4,93,30.03,1.8,East,13.8,-,0.00,Snow,Light Snow,90,2013-02-20 23:41:00
5:53 PM,30.9,28.9,92,30.06,1.5,East,13.8,-,0.00,Snow,Light Snow,100,2013-02-20 23:53:00
6:13 PM,30.2,28.4,93,30.01,2.0,East,15.0,-,0.01,Snow,Light Snow,100,2013-02-21 00:13:00
6:51 PM,32.0,26.6,80,30.03,3.0,East,12.7,-,0.01,Snow,Light Snow,100,2013-02-21 00:51:00
6:53 PM,32.0,27.0,82,30.07,3.0,East,11.5,-,0.01,Snow,Light Snow,100,2013-02-21 00:53:00
7:11 PM,30.2,26.6,86,30.04,1.8,East,15.0,-,0.00,Snow,Light Snow,100,2013-02-21 01:11:00
7:53 PM,30.0,26.1,85,30.08,1.8,East,12.7,-,0.02,Snow,Light Snow,90,2013-02-21 01:53:00
8:19 PM,30.2,24.8,80,30.04,9.0,East,10.4,-,0.00,Snow,Light Snow,80,2013-02-21 02:19:00
8:53 PM,30.0,21.0,69,30.09,6.0,East,16.1,25.3,0.00,Snow,Light Snow,100,2013-02-21 02:53:00
9:05 PM,28.4,23.0,80,30.04,1.8,East,18.4,-,0.00,Snow,Light Snow,100,2013-02-21 03:05:00
9:17 PM,28.4,24.8,86,30.05,0.8,East,12.7,-,N/A,Snow,Light Snow,90,2013-02-21 03:17:00
9:45 PM,26.6,24.8,93,30.04,2.0,East,18.4,26.5,0.03,Snow,Light Snow,100,2013-02-21 03:45:00
9:53 PM,27.0,24.1,89,30.06,1.8,East,17.3,25.3,0.03,Snow,Light Snow,100,2013-02-21 03:53:00
10:53 PM,26.1,23.0,88,30.07,1.0,East,18.4,-,0.02,Snow,Light Snow,90,2013-02-21 04:53:00
11:23 PM,26.6,23.0,86,30.01,6.0,East,16.1,24.2,0.00,Snow,Light Snow,90,2013-02-21 05:23:00
11:53 PM,26.1,23.0,88,30.04,8.0,East,16.1,-,0.00,Snow,Light Snow,90,2013-02-21 05:53:00